Hourly Weather Bolshie Krutcy

Today, 15 June, Tuesday

Time Temperature Precipitation Wind Pressure Humidity
00:00 +15°C° 0 mm 1 mps 749 mmHg 90%
01:00 +15°C° 0 mm 1 mps 749 mmHg 90%
02:00 +14°C° 0 mm 1 mps 749 mmHg 89%
03:00 +15°C° 0 mm 1 mps 749 mmHg 87%
04:00 +15°C° 0 mm 0 mps 749 mmHg 85%
05:00 +16°C° 0 mm 0 mps 749 mmHg 83%
06:00 +17°C° 0 mm 0 mps 749 mmHg 78%
07:00 +21°C° 0 mm 1 mps 749 mmHg 73%
08:00 +22°C° 0 mm 1 mps 748 mmHg 67%
09:00 +23°C° 0 mm 2 mps 748 mmHg 63%
10:00 +25°C° 0 mm 2 mps 748 mmHg 58%
11:00 +26°C° 0 mm 2 mps 747 mmHg 54%
12:00 +25°C° 0 mm 2 mps 747 mmHg 57%
13:00 +25°C° 0 mm 2 mps 747 mmHg 61%
14:00 +24°C° 0 mm 2 mps 746 mmHg 64%
15:00 +24°C° 0 mm 2 mps 746 mmHg 64%
16:00 +25°C° 0 mm 2 mps 746 mmHg 64%
17:00 +25°C° 0 mm 2 mps 745 mmHg 63%
18:00 +24°C° 0 mm 2 mps 745 mmHg 67%
19:00 +21°C° 0 mm 2 mps 745 mmHg 71%
20:00 +20°C° 0 mm 2 mps 745 mmHg 74%
21:00 +20°C° 0 mm 2 mps 745 mmHg 73%
22:00 +19°C° 0 mm 2 mps 745 mmHg 72%
23:00 +18°C° 0 mm 2 mps 745 mmHg 72%

Tomorrow, 16 June, Wednesday

Time Temperature Precipitation Wind Pressure Humidity
00:00 +17°C° 0 mm 2 mps 745 mmHg 76%
01:00 +16°C° 0 mm 2 mps 745 mmHg 80%
02:00 +15°C° 0 mm 2 mps 745 mmHg 84%
03:00 +15°C° 0 mm 2 mps 746 mmHg 85%
04:00 +16°C° 0 mm 2 mps 746 mmHg 86%
05:00 +16°C° 0 mm 2 mps 746 mmHg 87%
06:00 +17°C° 0 mm 3 mps 746 mmHg 81%
07:00 +18°C° 0 mm 4 mps 747 mmHg 75%
08:00 +20°C° 0 mm 4 mps 747 mmHg 69%
09:00 +20°C° 0 mm 4 mps 748 mmHg 61%
10:00 +21°C° 0 mm 5 mps 748 mmHg 53%
11:00 +22°C° 0 mm 5 mps 748 mmHg 45%
12:00 +22°C° 0 mm 5 mps 748 mmHg 43%
13:00 +22°C° 0 mm 5 mps 749 mmHg 41%
14:00 +22°C° 0 mm 5 mps 749 mmHg 40%
15:00 +22°C° 0 mm 4 mps 749 mmHg 43%
16:00 +21°C° 0 mm 4 mps 749 mmHg 47%
17:00 +21°C° 0 mm 3 mps 750 mmHg 51%
18:00 +19°C° 0 mm 3 mps 750 mmHg 57%
19:00 +17°C° 0 mm 2 mps 750 mmHg 63%
20:00 +16°C° 0 mm 2 mps 751 mmHg 69%
21:00 +15°C° 0 mm 2 mps 751 mmHg 68%
22:00 +14°C° 0 mm 2 mps 752 mmHg 68%
23:00 +13°C° 0 mm 2 mps 752 mmHg 67%

Day after tomorrow, 17 June, Thursday

Time Temperature Precipitation Wind Pressure Humidity
00:00 +12°C° 0 mm 2 mps 753 mmHg 66%
01:00 +10°C° 0 mm 2 mps 753 mmHg 65%
02:00 +10°C° 0 mm 2 mps 753 mmHg 63%
03:00 +10°C° 0 mm 2 mps 754 mmHg 65%
04:00 +12°C° 0 mm 2 mps 754 mmHg 66%
05:00 +13°C° 0 mm 2 mps 755 mmHg 68%
06:00 +15°C° 0 mm 2 mps 755 mmHg 61%
07:00 +18°C° 0 mm 1 mps 755 mmHg 55%
08:00 +20°C° 0 mm 1 mps 755 mmHg 49%
09:00 +20°C° 0 mm 2 mps 755 mmHg 47%
10:00 +21°C° 0 mm 2 mps 755 mmHg 45%
11:00 +24°C° 0 mm 2 mps 755 mmHg 44%
12:00 +24°C° 0 mm 2 mps 755 mmHg 43%
13:00 +25°C° 0 mm 2 mps 755 mmHg 43%
14:00 +25°C° 0 mm 3 mps 755 mmHg 43%
15:00 +25°C° 0 mm 2 mps 755 mmHg 47%
16:00 +25°C° 0 mm 2 mps 755 mmHg 52%
17:00 +25°C° 0 mm 1 mps 755 mmHg 56%
18:00 +23°C° 0 mm 1 mps 755 mmHg 62%
19:00 +21°C° 0 mm 1 mps 755 mmHg 68%
20:00 +19°C° 0 mm 1 mps 755 mmHg 74%
21:00 +18°C° 0 mm 1 mps 756 mmHg 74%
22:00 +16°C° 0 mm 1 mps 756 mmHg 75%
23:00 +16°C° 0 mm 1 mps 756 mmHg 75%

18 June, Friday

Time Temperature Precipitation Wind Pressure Humidity
00:00 +15°C° 0 mm 1 mps 757 mmHg 76%
01:00 +15°C° 0 mm 1 mps 757 mmHg 76%
02:00 +14°C° 0 mm 1 mps 757 mmHg 77%
03:00 +15°C° 0 mm 1 mps 757 mmHg 76%
04:00 +16°C° 0 mm 1 mps 757 mmHg 75%
05:00 +18°C° 0 mm 1 mps 757 mmHg 75%
06:00 +20°C° 0 mm 1 mps 757 mmHg 69%
07:00 +22°C° 0 mm 1 mps 757 mmHg 63%
08:00 +23°C° 0 mm 1 mps 758 mmHg 57%
09:00 +25°C° 0 mm 2 mps 757 mmHg 54%
10:00 +26°C° 0 mm 2 mps 757 mmHg 50%
11:00 +27°C° 0 mm 2 mps 757 mmHg 47%
12:00 +27°C° 0 mm 2 mps 757 mmHg 46%
13:00 +28°C° 0 mm 2 mps 757 mmHg 45%
14:00 +28°C° 0 mm 3 mps 757 mmHg 44%
15:00 +28°C° 0 mm 3 mps 756 mmHg 47%
16:00 +28°C° 0 mm 3 mps 756 mmHg 51%
17:00 +28°C° 0 mm 3 mps 756 mmHg 55%
18:00 +26°C° 0 mm 3 mps 756 mmHg 62%
19:00 +24°C° 0 mm 3 mps 756 mmHg 68%
20:00 +21°C° 0 mm 3 mps 756 mmHg 75%
21:00 +20°C° 0 mm 3 mps 756 mmHg 76%
22:00 +19°C° 0 mm 3 mps 756 mmHg 77%
23:00 +18°C° 0 mm 3 mps 756 mmHg 78%

19 June, Saturday

Time Temperature Precipitation Wind Pressure Humidity
00:00 +18°C° 0 mm 3 mps 756 mmHg 81%
01:00 +17°C° 0 mm 3 mps 756 mmHg 83%
02:00 +17°C° 0 mm 3 mps 756 mmHg 86%
03:00 +17°C° 0 mm 3 mps 756 mmHg 85%
04:00 +18°C° 0 mm 3 mps 756 mmHg 84%
05:00 +19°C° 0 mm 3 mps 757 mmHg 82%
06:00 +20°C° 0 mm 3 mps 757 mmHg 75%
07:00 +22°C° 0 mm 4 mps 757 mmHg 68%
08:00 +25°C° 0 mm 4 mps 757 mmHg 61%
09:00 +26°C° 0 mm 4 mps 756 mmHg 57%
10:00 +27°C° 0 mm 4 mps 756 mmHg 52%
11:00 +28°C° 0 mm 4 mps 756 mmHg 48%
12:00 +29°C° 0 mm 4 mps 756 mmHg 47%
13:00 +29°C° 0 mm 4 mps 756 mmHg 45%
14:00 +30°C° 0 mm 4 mps 755 mmHg 44%
15:00 +29°C° 0 mm 3 mps 755 mmHg 47%
16:00 +29°C° 0 mm 3 mps 755 mmHg 50%
17:00 +29°C° 0 mm 3 mps 755 mmHg 53%
18:00 +27°C° 0 mm 3 mps 755 mmHg 59%
19:00 +25°C° 0 mm 3 mps 755 mmHg 64%
20:00 +22°C° 0 mm 3 mps 755 mmHg 69%
21:00 +22°C° 0 mm 3 mps 755 mmHg 71%
22:00 +21°C° 0 mm 3 mps 755 mmHg 73%
23:00 +21°C° 0 mm 3 mps 755 mmHg 75%

20 June, Sunday

Time Temperature Precipitation Wind Pressure Humidity
00:00 +21°C° 0 mm 3 mps 755 mmHg 77%
01:00 +20°C° 0 mm 2 mps 755 mmHg 78%
02:00 +20°C° 0 mm 2 mps 755 mmHg 79%
03:00 +20°C° 0 mm 2 mps 756 mmHg 80%
04:00 +20°C° 0 mm 2 mps 756 mmHg 80%
05:00 +20°C° 0 mm 2 mps 756 mmHg 81%
06:00 +23°C° 0 mm 2 mps 756 mmHg 75%
07:00 +24°C° 0 mm 2 mps 755 mmHg 69%
08:00 +26°C° 0 mm 2 mps 755 mmHg 64%
09:00 +27°C° 0 mm 2 mps 755 mmHg 58%
10:00 +29°C° 0 mm 2 mps 755 mmHg 53%
11:00 +30°C° 0 mm 2 mps 755 mmHg 47%
12:00 +30°C° 0 mm 2 mps 755 mmHg 45%
13:00 +31°C° 0 mm 2 mps 754 mmHg 44%
14:00 +31°C° 0 mm 3 mps 754 mmHg 42%
15:00 +31°C° 0 mm 2 mps 754 mmHg 46%
16:00 +31°C° 0 mm 2 mps 754 mmHg 49%
17:00 +30°C° 0 mm 2 mps 753 mmHg 53%
18:00 +28°C° 0 mm 2 mps 753 mmHg 59%
19:00 +27°C° 0 mm 2 mps 753 mmHg 66%
20:00 +25°C° 0 mm 3 mps 753 mmHg 72%
21:00 +22°C° 0 mm 3 mps 753 mmHg 74%
22:00 +21°C° 0 mm 3 mps 753 mmHg 76%
23:00 +20°C° 0 mm 3 mps 753 mmHg 78%
Show more